[[{"header":{"parameterUnit":"m.s-1","parameterCategory":1,"la1":30.2991,"la2":30.254,"lo1":-89.0895,"lo2":-89.0444,"dy":0.0017,"dx":0.0017,"nx":28,"ny":28,"refTime":"2024-03-31T21:00:00:Z","depth":0,"parameterNumber":2,"parameterNumberName":"U-component_of_WINDS"},"data":[0,0,0,0,0,0,0,0,0,0,0,0,0,0,0,0,0,0,0,0,0,0,0,0,0,0,0,0,0,0,0,0,0,0,0,0,0,0,0,0,0,0,0,0,0,0,0,0,0,0,0,0,0,0,0,0,0,0,-3.0401,-3.0401,0,-3.0463,-3.0464,-3.0465,-3.0445,-3.0444,-3.0442,-3.0441,-3.0507,-3.0509,-3.0512,0,0,0,0,0,0,0,0,0,0,0,0,0,-3.0267,-3.0269,-3.0401,-3.0401,-3.0402,-3.0463,-3.0464,-3.0465,-3.0445,-3.0444,-3.0442,-3.0441,-3.0506,-3.0509,-3.0513,0,0,0,0,0,0,0,0,0,0,0,0,0,-3.0327,-3.027,-3.0401,-3.04,-3.04,-3.0463,-3.0464,-3.0465,-3.0446,-3.0444,-3.0442,-3.044,-3.0504,-3.0509,-3.0513,-3.0581,0,0,-3.0527,-3.0529,0,0,0,0,0,0,0,0,-3.0323,-3.0332,-3.0399,-3.04,-3.0401,-3.0444,-3.0441,-3.0504,-3.0446,-3.0429,-3.0441,-3.0439,-3.0488,-3.0493,-3.0509,-3.0584,-3.0587,-3.0527,-3.053,-3.0532,-3.0533,0,0,0,0,0,0,0,-3.0319,-3.0329,-3.0425,-3.04,-3.0401,-3.0397,-3.0404,-3.0453,-3.0469,-3.043,-3.0429,-3.0436,-3.0488,-3.0505,-3.0511,-3.0588,-3.0527,-3.0531,-3.0534,-3.0536,-3.0723,-3.0725,0,0,0,0,0,0,-3.0314,-3.0326,-3.0423,-3.0427,-3.0356,-3.0401,-3.0408,-3.0432,-3.0468,-3.0471,-3.0438,-3.0435,-3.0499,-3.0506,-3.0513,-3.0595,-3.0532,-3.0536,-3.0539,-3.072,-3.0723,-3.0726,0,0,0,0,0,0,-3.0312,-3.0323,-3.0421,-3.0376,-3.0388,-3.0406,-3.0433,-3.0435,-3.0452,-3.0474,-3.0477,-3.0453,-3.0497,-3.0507,-3.0564,-3.0597,-3.0538,-3.0542,-3.0718,-3.0721,-3.0724,-3.076,0,0,0,0,0,0,-3.0308,-3.0322,-3.0347,-3.0377,-3.0391,-3.047,-3.0435,-3.0437,-3.046,-3.0457,-3.0489,-3.0492,-3.0496,-3.0558,-3.0569,-3.0602,-3.0546,-3.0715,-3.0719,-3.0723,-3.0756,-3.0764,-3.0771,0,0,0,0,0,-3.0303,-3.0355,-3.0349,-3.0361,-3.0422,-3.0472,-3.048,-3.0484,-3.0462,-3.0488,-3.0503,-3.0491,-3.0592,-3.0564,-3.0576,-3.0611,-3.0713,-3.0718,-3.0723,-3.0752,-3.0762,-3.0771,0,0,0,0,0,0,-3.0328,-3.0358,-3.0352,-3.0415,-3.0441,-3.0469,-3.0501,-3.0494,-3.0528,-3.0523,-3.0527,-3.0534,-3.0594,-3.0609,-3.0576,-3.068,-3.0649,-3.0657,-3.0668,-3.0677,-3.0685,-3.068,-3.0549,0,0,0,0,0,-3.0341,-3.0379,-3.0403,-3.0456,-3.047,-3.0484,-3.0506,-3.0506,-3.0534,-3.0545,-3.0563,-3.0591,-3.0629,-3.0654,-3.0691,-3.0758,-3.0766,-3.0789,-3.0797,-3.0803,-3.0809,-3.0848,-3.0859,-3.0742,-3.0742,-3.0742,0,0,-3.0368,-3.0389,-3.0413,-3.0462,-3.0483,-3.0522,-3.0493,-3.0536,-3.0565,-3.0552,-3.0607,-3.0622,-3.0653,-3.0717,-3.0746,-3.0731,-3.0844,-3.0809,-3.0814,-3.0817,-3.0854,-3.0865,-3.0875,-3.0746,-3.0745,-3.0745,0,0,-3.0437,-3.0457,-3.0504,-3.0525,-3.0557,-3.0566,-3.0578,-3.0607,-3.0616,-3.0672,-3.0663,-3.0699,-3.0765,-3.0788,-3.0808,-3.0889,-3.088,-3.0901,-3.0941,-3.0978,-3.0987,-3.0995,-3.1025,-3.1035,-3.0908,-3.0908,-3.0908,0,-3.0467,-3.0525,-3.0529,-3.0573,-3.0595,-3.0585,-3.0633,-3.0654,-3.0696,-3.0713,-3.0696,-3.0779,-3.0799,-3.0869,-3.0889,-3.0905,-3.0919,-3.0897,-3.0986,-3.0994,-3.1001,-3.103,-3.1041,-3.091,-3.091,-3.0909,-3.0909,0,-3.0561,-3.0602,-3.0636,-3.0677,-3.0703,-3.0749,-3.0761,-3.0788,-3.0787,-3.0798,-3.0856,-3.0881,-3.0923,-3.0939,-3.0939,-3.1009,-3.0999,-3.0984,-3.0953,-3.1015,-3.1041,-3.1052,-3.0913,-3.0912,-3.0912,-3.0911,0,0,-3.0645,-3.0689,-3.0702,-3.0721,-3.0756,-3.0788,-3.0835,-3.0876,-3.0899,-3.0929,-3.0969,-3.1026,-3.1012,-3.1036,-3.1038,-3.1071,-3.1135,-3.1052,-3.1053,-3.1067,-3.1215,-3.1226,-3.1238,-3.1129,-3.1132,-3.1133,-3.1213,0,-3.0718,-3.0798,-3.0804,-3.0877,-3.0916,-3.0908,-3.0949,-3.0976,-3.0988,-3.1024,-3.1038,-3.1078,-3.1057,-3.1071,-3.1104,-3.112,-3.1165,-3.1114,-3.1167,-3.1169,-3.1159,-3.1252,-3.1263,-3.1337,-3.1223,-3.1225,-3.1226,0,-3.0812,-3.0845,-3.0922,-3.0954,-3.097,-3.1007,-3.1045,-3.1079,-3.111,-3.1117,-3.1145,-3.1143,-3.1192,-3.1161,-3.1229,-3.1195,-3.1217,-3.1229,-3.1232,-3.1236,-3.12,-3.1259,-3.136,-3.1372,-3.1242,-3.1241,-3.124,0,-3.0866,-3.0931,-3.0986,-3.1002,-3.104,-3.1066,-3.1083,-3.1113,-3.1137,-3.1172,-3.1188,-3.1228,-3.125,-3.1282,-3.1292,-3.1268,-3.136,-3.1329,-3.1368,-3.1368,-3.1387,-3.1385,-3.1493,-3.1402,-3.1402,-3.1402,-3.1401,0,-3.0946,-3.0994,-3.1011,-3.1044,-3.1098,-3.1105,-3.1158,-3.1174,-3.1201,-3.1238,-3.1235,-3.127,-3.1281,-3.1319,-3.1328,-3.1384,-3.1394,-3.1401,-3.1403,-3.1401,-3.14,-3.1415,-3.141,-3.1404,-3.1404,-3.1403,-3.1403,0,-3.1015,-3.1029,-3.1088,-3.112,-3.1129,-3.1167,-3.1195,-3.1228,-3.1241,-3.1289,-3.13,-3.1321,-3.1365,-3.1379,-3.1433,-3.1438,-3.1504,-3.1501,-3.1493,-3.1493,-3.1531,-3.1528,-3.1652,-3.1669,-3.1567,-3.1568,-3.1569,0,-3.1065,-3.1102,-3.1138,-3.1162,-3.1181,-3.1221,-3.1246,-3.1256,-3.1283,-3.1322,-3.1351,-3.1395,-3.1431,-3.1503,-3.1523,-3.1565,-3.1563,-3.1604,-3.1569,-3.1567,-3.1564,-3.1561,-3.1565,-3.161,-3.1611,-3.1612,-3.1612,0,-3.1152,-3.1157,-3.1194,-3.1234,-3.1264,-3.1296,-3.1327,-3.1348,-3.1362,-3.1392,-3.1438,-3.1466,-3.1521,-3.1566,-3.1609,-3.1627,-3.1623,-3.1624,-3.1635,-3.1633,-3.1627,-3.1632,-3.1511,-3.162,-3.1619,-3.1619,-3.1618,-3.1618,-3.1213,-3.1246,-3.1277,-3.1318,-3.1343,-3.1372,-3.1405,-3.1422,-3.146,-3.1506,-3.151,-3.1559,-3.1592,-3.1649,-3.167,-3.171,-3.1698,-3.1714,-3.1718,-3.1722,-3.1726,-3.1622,-3.1718,-3.1718,-3.1717,-3.1717,-3.1717,0,-3.13,-3.132,-3.1358,-3.1402,-3.1435,-3.1428,-3.1462,-3.149,-3.1534,-3.1565,-3.16,-3.1654,-3.1697,-3.1722,-3.1766,-3.1793,-3.1792,-3.1804,-3.1802,-3.1807,-3.1733,-3.1719,-3.1804,-3.1804,-3.1804,-3.1804,-3.1804,-3.1804,-3.1349,-3.1404,-3.1414,-3.1482,-3.1502,-3.155,-3.157,-3.1598,-3.1622,-3.1682,-3.1718,-3.1734,-3.1763,-3.1809,-3.1849,-3.1856,-3.1872,-3.1886,-3.1891,-3.1821,-3.1812,-3.1803,-3.179,-3.1889,-3.1889,-3.1961,-3.1962,-3.1962]},{"header":{"parameterUnit":"m.s-1","parameterCategory":1,"la1":30.2991,"la2":30.254,"lo1":-89.0895,"lo2":-89.0444,"dy":0.0017,"dx":0.0017,"nx":28,"ny":28,"refTime":"2024-03-31T21:00:00:Z","depth":0,"parameterNumber":3,"parameterNumberName":"V-component_of_WINDS"},"data":[0,0,0,0,0,0,0,0,0,0,0,0,0,0,0,0,0,0,0,0,0,0,0,0,0,0,0,0,0,0,0,0,0,0,0,0,0,0,0,0,0,0,0,0,0,0,0,0,0,0,0,0,0,0,0,0,0,0,3.6491,3.6491,0,3.6483,3.6483,3.6483,3.6464,3.6463,3.6463,3.6462,3.6451,3.6451,3.6451,0,0,0,0,0,0,0,0,0,0,0,0,0,3.649,3.649,3.6491,3.6491,3.6491,3.6483,3.6483,3.6483,3.6464,3.6463,3.6463,3.6462,3.6451,3.6451,3.6451,0,0,0,0,0,0,0,0,0,0,0,0,0,3.6487,3.649,3.6491,3.6481,3.648,3.6483,3.6483,3.6483,3.6464,3.6463,3.6463,3.6462,3.6451,3.6451,3.6452,3.6464,0,0,3.6452,3.6452,0,0,0,0,0,0,0,0,3.6487,3.6487,3.6482,3.6481,3.648,3.6474,3.6478,3.6476,3.6464,3.647,3.6462,3.6462,3.6459,3.6459,3.6458,3.6463,3.6463,3.6452,3.6452,3.6452,3.6452,0,0,0,0,0,0,0,3.6487,3.6487,3.6488,3.6482,3.6481,3.6476,3.6475,3.6478,3.6468,3.6469,3.6468,3.6467,3.6458,3.6458,3.6458,3.6463,3.6452,3.6452,3.6452,3.6452,3.648,3.6481,0,0,0,0,0,0,3.6489,3.6488,3.6488,3.6488,3.6482,3.6477,3.6475,3.6476,3.6468,3.6466,3.6468,3.6466,3.6458,3.6458,3.6457,3.6473,3.6452,3.6452,3.6452,3.6479,3.648,3.6481,0,0,0,0,0,0,3.6489,3.649,3.6489,3.6487,3.6487,3.6477,3.6479,3.6477,3.6476,3.6467,3.6464,3.6469,3.6458,3.6457,3.6463,3.6472,3.6452,3.6452,3.6479,3.648,3.6481,3.6503,0,0,0,0,0,0,3.6489,3.649,3.6494,3.6488,3.6487,3.6495,3.6479,3.6477,3.6477,3.6475,3.6468,3.6466,3.6457,3.6463,3.6463,3.6472,3.6452,3.6478,3.6479,3.648,3.6502,3.6505,3.6508,0,0,0,0,0,3.6489,3.65,3.6495,3.6495,3.6493,3.6495,3.6495,3.6486,3.6478,3.6482,3.6477,3.6466,3.6471,3.6464,3.6464,3.6473,3.6477,3.6479,3.648,3.65,3.6504,3.6508,0,0,0,0,0,0,3.6507,3.6499,3.6493,3.6502,3.65,3.6492,3.6498,3.649,3.6489,3.6487,3.6475,3.6474,3.6482,3.6478,3.647,3.6486,3.6473,3.6474,3.6488,3.6492,3.6495,3.6496,3.6452,0,0,0,0,0,3.6512,3.6515,3.6508,3.6516,3.6516,3.6507,3.6508,3.6501,3.6498,3.6497,3.6491,3.6488,3.6489,3.649,3.649,3.6501,3.65,3.6507,3.651,3.6513,3.6515,3.6522,3.6526,3.6486,3.6486,3.6486,0,0,3.6522,3.6518,3.652,3.652,3.6517,3.6521,3.6506,3.651,3.6513,3.6497,3.6503,3.6499,3.6495,3.6504,3.6508,3.6501,3.6526,3.6515,3.6517,3.6517,3.6524,3.6528,3.6531,3.6487,3.6487,3.6487,0,0,3.6542,3.6539,3.6547,3.6545,3.6543,3.6537,3.6539,3.6533,3.6531,3.6537,3.6526,3.6528,3.653,3.6528,3.6528,3.655,3.6541,3.6551,3.6567,3.6574,3.6577,3.658,3.6589,3.6593,3.6552,3.6552,3.6552,0,3.6555,3.656,3.6551,3.6557,3.6558,3.6545,3.6553,3.6552,3.6549,3.655,3.6542,3.6546,3.6542,3.6552,3.6558,3.6557,3.6559,3.6551,3.6578,3.658,3.6583,3.6592,3.6595,3.6554,3.6553,3.6553,3.6553,0,3.6577,3.6581,3.6588,3.6587,3.6588,3.6595,3.6588,3.659,3.6584,3.6579,3.6587,3.6582,3.6582,3.6584,3.6577,3.6593,3.6589,3.658,3.6567,3.6588,3.6596,3.6599,3.6555,3.6555,3.6555,3.6554,0,0,3.6607,3.6603,3.6606,3.6606,3.6603,3.6606,3.6613,3.6615,3.6618,3.6616,3.6622,3.6625,3.6618,3.6617,3.661,3.6616,3.6637,3.6606,3.6606,3.6614,3.6656,3.6664,3.6668,3.6631,3.6631,3.6632,3.6657,0,3.6627,3.6639,3.6633,3.6646,3.6651,3.664,3.6646,3.6645,3.6641,3.6645,3.664,3.6643,3.6632,3.6632,3.6638,3.6633,3.6645,3.6631,3.6637,3.6637,3.6639,3.6672,3.668,3.6704,3.666,3.6661,3.6661,0,3.6652,3.6654,3.6669,3.6667,3.6669,3.6674,3.6676,3.668,3.6679,3.6676,3.6677,3.6669,3.6676,3.6663,3.6673,3.6663,3.6665,3.6664,3.6664,3.6665,3.6651,3.6675,3.6711,3.6715,3.6666,3.6665,3.6665,0,3.6675,3.6681,3.6691,3.6691,3.6689,3.6694,3.6693,3.6691,3.6694,3.6695,3.6697,3.6699,3.67,3.6702,3.6695,3.6686,3.6706,3.6692,3.6705,3.6705,3.671,3.671,3.6748,3.6709,3.6709,3.6709,3.6709,0,3.6699,3.6708,3.6701,3.6707,3.6718,3.671,3.6721,3.6719,3.6718,3.6724,3.6714,3.6719,3.671,3.6714,3.6709,3.6719,3.6719,3.6717,3.6716,3.6719,3.6719,3.672,3.6719,3.671,3.671,3.671,3.671,0,3.6725,3.6721,3.6731,3.6729,3.6729,3.6737,3.6735,3.6741,3.6738,3.6745,3.6747,3.6741,3.6746,3.674,3.6744,3.674,3.6755,3.675,3.6755,3.6755,3.6768,3.6767,3.6809,3.6815,3.6772,3.6772,3.6772,0,3.6741,3.6749,3.6748,3.6752,3.6753,3.6758,3.6761,3.6754,3.6758,3.6759,3.6765,3.6769,3.6773,3.6782,3.6778,3.6782,3.6778,3.6792,3.6778,3.6782,3.678,3.678,3.6782,3.6795,3.6796,3.6796,3.6797,0,3.6771,3.6769,3.6774,3.6779,3.6783,3.6786,3.6788,3.6792,3.6785,3.6789,3.6795,3.6798,3.6804,3.6809,3.6812,3.6811,3.6803,3.6801,3.6805,3.6808,3.6812,3.6812,3.6765,3.68,3.68,3.68,3.68,3.6799,3.6794,3.6801,3.6802,3.6809,3.681,3.6813,3.6819,3.6817,3.6823,3.6828,3.6823,3.6831,3.6832,3.6835,3.6836,3.6842,3.6836,3.684,3.6841,3.6843,3.6846,3.681,3.6842,3.6842,3.6842,3.6842,3.6842,0,3.6824,3.6825,3.6831,3.6836,3.6841,3.6834,3.6837,3.6842,3.685,3.6851,3.6856,3.6864,3.687,3.6867,3.6872,3.6878,3.6874,3.6879,3.6879,3.688,3.685,3.6847,3.6882,3.6882,3.6882,3.6882,3.6882,3.6882,3.684,3.6853,3.6851,3.6865,3.6865,3.6874,3.6877,3.688,3.6881,3.6891,3.6897,3.6895,3.6896,3.6901,3.6906,3.6906,3.6908,3.6915,3.6913,3.6885,3.6881,3.6878,3.6875,3.6916,3.6916,3.6943,3.6943,3.6943]}]]